Regional Weather Roundup
Issued by NWS

Home | Current Version | Previous Version | Text Only | Print | Product List | Glossary Off
Versions: 1 2 3 4 5 6 7 8 9 10 11 12 13 14 15 16 17 18 19 20 21 22 23 24 25 26 27 28 29 30 31 32 33 34 35 36 37 38 39 40 41 42 43 44 45 46 47 48 49 50

723
ASUS43 KOAX 201110
RWRNE

WEATHER ROUNDUP FOR NEBRASKA
NATIONAL WEATHER SERVICE OMAHA NE
600 AM CDT FRI APR 20 2018

NOTES: SATELLITE DATA IS BEING USED TO AUGMENT CLOUD COVER ABOVE
       12000 FEET.
       "FAIR" INDICATES FEW OR NO CLOUDS BELOW 12,000 FEET WITH NO
       SIGNIFICANT WEATHER AND/OR OBSTRUCTIONS TO VISIBILITY.


NEZ001>004-019>022-054>056-201200-
NEBRASKA PANHANDLE

CITY           SKY/WX    TMP DP  RH WIND       PRES   REMARKS
SCOTTSBLUFF    CLOUDY    40  28  62 SE22G29   30.06F WCI  30
ALLIANCE       CLOUDY    40  28  62 SE30G38   30.07F WCI  28
CHADRON        CLOUDY    44  28  53 SE22G32   30.07F
GORDON         FAIR      39  29  66 SE12      30.14S WCI  32
KIMBALL        CLOUDY    36  26  66 SE18G28   30.01F WCI  26
SIDNEY         MOCLDY    37  27  67 SE29G37   30.06F WCI  25
$$

NEZ057>060-069>072-079>082-201200-
SOUTHWEST NEBRASKA

CITY           SKY/WX    TMP DP  RH WIND       PRES   REMARKS
NORTH PLATTE   CLOUDY    44  28  53 S10       30.21F
IMPERIAL       CLOUDY    41  28  60 E17       30.15F
LEXINGTON      MOCLDY    40  29  64 SE8       30.27S
MCCOOK         CLOUDY    40  27  59 E6        30.22S
OGALLALA       CLOUDY    43  28  55 SE16G25   30.15F
$$

NEZ005>010-023>029-035>040-094-201200-
NORTH CENTRAL NEBRASKA

CITY           SKY/WX    TMP DP  RH WIND       PRES   REMARKS
VALENTINE      CLOUDY    33  28  81 E8        30.23F WCI  26
AINSWORTH      CLOUDY    37  29  72 S8        30.25S WCI  31
BROKEN BOW     PTCLDY    34  26  72 SE6       30.27S WCI  29
O`NEILL        CLOUDY    37  32  80 SE8       30.32S WCI  31
ORD            MOCLDY    32  28  85 E5        30.30F WCI  27
THEDFORD       CLOUDY    40  29  65 SE10      30.23F WCI  34
$$

NEZ041-046>049-061>064-073>077-083>087-201200-
SOUTH CENTRAL NEBRASKA

CITY           SKY/WX    TMP DP  RH WIND       PRES   REMARKS
GRAND ISLAND   CLOUDY    38  28  67 SE8       30.33S WCI  32
AURORA         CLOUDY    32  27  81 SE7       30.34S WCI  26
HASTINGS       CLOUDY    37  27  67 SE6       30.32F WCI  32
HEBRON         CLOUDY    37  29  73 SE5       30.36R WCI  33
HOLDREGE       CLOUDY    38  30  73 SE9       30.28S WCI  31
KEARNEY        CLOUDY    35  27  72 SE8       30.31S WCI  29
YORK             N/A     36  28  75 CALM      30.36R
$$

NEZ011>018-030>034-042>045-201200-
NORTHEAST NEBRASKA

CITY           SKY/WX    TMP DP  RH WIND       PRES   REMARKS
NORFOLK        PTCLDY    32  28  85 SE7       30.36S WCI  26
ALBION         CLOUDY    35  30  82 SE7       30.34F WCI  29
BLAIR          CLOUDY    36  27  71 SE3       30.40R
COLUMBUS       CLOUDY    33  28  81 E7        30.38S WCI  27
FREMONT        PTCLDY    38  29  71 E7        30.40S WCI  32
TEKAMAH        CLOUDY    28  25  88 SW3       30.42S
WAYNE          CLOUDY    30  29  96 CALM      30.39S
$$

NEZ050>053-065>068-078-088>093-201200-
SOUTHEAST NEBRASKA

CITY           SKY/WX    TMP DP  RH WIND       PRES   REMARKS
LINCOLN        PTCLDY    36  27  69 CALM      30.40S
OMAHA EPPLEY   CLOUDY    35  25  66 SE7       30.42S WCI  29
BEATRICE       CLOUDY    39  30  71 SE6       30.38S WCI  34
NEBRASKA CITY  CLOUDY    35  28  76 CALM      30.41R
PLATTSMOUTH    PTCLDY    37  28  70 SE8       30.41R HAZE    WCI  30
$$

NEZ044-045-051>053-067-201200-
OMAHA AREA

CITY           SKY/WX    TMP DP  RH WIND       PRES   REMARKS
OMAHA EPPLEY   CLOUDY    35  25  66 SE7       30.42S WCI  29
BLAIR          CLOUDY    36  27  71 SE3       30.40R
FREMONT        PTCLDY    38  29  71 E7        30.40S WCI  32
MILLARD        CLOUDY    37  28  70 CALM      30.41S
OFFUTT AFB     PTCLDY    29  24  81 NE6       30.41R WCI  23
PLATTSMOUTH    PTCLDY    37  28  70 SE8       30.41R HAZE    WCI  30
WAHOO          FAIR      33  25  73 SE5       30.39S WCI  28
$$




USA.gov is the U.S. government's official web portal to all federal, state and local government web resources and services.